CZ-3C DEB, 40204

Orbit data source: Space-Track

CZ-3C DEB, 40204 is space debris in HEO originally from a launch on Fri, 24 Feb 2012 UTC launched from the Xichang Space Center, China (XSC). Debris objects in space refer to the collection of defunct objects orbiting the Earth. Examples of debris include non-operational satellites, rocket bodies, and fragments generated from explosions, collisions, or faulty payload assembly.

Loading next visibility...
Identifier
40204, 2012-008P
Orbit
HEO
Country
Flag of CNCN / PRC
Related business
Manufacturer
CALT
Mission
Spacecraft
Bus & Motor
Unknown
Mass
Unknown
Launch date (UTC)
2012-02-24 (14 years ago)
Launch vehicle
Unknown
Launch site
Xichang Space Center, China (XSC)
Object type
Payload
Rocket body
Debris
Shape & HBR
Unknown shape, 0.1 m
Radar Cross Section
Medium (>0.1 m² and <1 m²)

Expand to show TLE details & history
Last TLE update: 1 week ago

TLE from 1 week ago
0 CZ-3C DEB
1 40204U 12008P   26065.18337359 -.00000127  00000-0  38498-3 0  9995
2 40204  20.6075  49.2432 7092515 158.6196 260.2340  2.27000955 94371
Epoch: 2026-03-06T04:24Z
TLE epoch observation values (Epoch: 2026-03-06T04:24:03.478Z)
Latitude
-0.00006°
Longitude
179.33943°
Altitude
29,343.909 km
Speed
2.453 km/s
True Right ascension
03h 17m 06s
True Declination
0° 00' 00"
Sunlit
Object was in daylight at epoch
Visualization orbit readout
Latitude
Unknown
Longitude
Unknown
Altitude
Unknown
Speed
Unknown
Apparent Right ascension
Unknown
Apparent Declination
Unknown
Sunlit
N/A
Visualization observer readout
Local Sidereal Time
23:34:03
Azimuth
Unknown
Elevation
Unknown
Doppler factor
Unknown
Orbital elements
Apogee altitude
35,430.301 km
Perigee altitude
733.596 km
Semi-major axis
24,460.086 km
Eccentricity
0.70925
Inclination
20.6075°
RAAN
49.2432°
Arg. of periapsis
158.6196°
True anomaly
201.47585°
Mean anomaly
260.234°
Eccentric anomaly
229.38591°
Mean motion
0.56736 °/min
Orbital period
634.52 mins
BSTAR
0.00038498
Loading maneuver chart data...
Computing Atmospheric mass density...
Loading historical data...
Loading historical data...
Loading historical data...
Loading historical data...
Loading historical data...
Loading historical data...
Loading historical data...

Documentation

Showing up to 5 results
|